Location: Winthrop
(48.4780°N, 120.1850°W)
Time: 23:38:49
(UTC-07:00)

A-11 Canister half - Pass Details

Date: 01 June 2023
Orbit: 1515 x 1684 km, 47.2° (Epoch: 29 September)

Event Time Altitude Azimuth Distance (km) Brightness Sun altitude
Exits shadow 02:16:25 16° 166° (SSE) 3,381 10.3 -17.4°
Maximum altitude 02:21:06 22° 131° (SE) 2,921 10.3 -17.1°
Drops below altitude 10° 02:27:52 10° 85° (E) 3,747 11.4 -16.7°
Sets 02:31:44 0° 71° (ENE) 4,710 12.2 -16.5°
